Flag for Russia Weather past 2 weeks in Astrakhan, Russia

Now
54 °F

Clear.


Feels Like: 50 °F
Forecast: 53 / 61 °F
Wind: 10 mph from Northeast

Location: Astrakhan

Current Time: Sep 21, 2014 at 2:53:23 AM

Latest Report: Sep 21, 2014 at 2:30 AM


Visibility: 10 mi

Pressure: 30.09 "Hg

Humidity: 72%

Dew point: 45 °F

Location of AstrakhanLocation

Historic Weather in Astrakhan — Graph

°F

Astrakhan temperature yesterday

Maximum temperature yesterday: 66 °F (at 11:30 AM)
Minimum temperature yesterday: 54 °F (at 9:30 PM)
Average temperature yesterday: 59 °F

Past Weeks' High & Low Weather Summary

 TemperatureHumidityPressure
High88 °F (Sep 8, 3:30 PM)88% (Sep 7, 2:00 AM)30.39 "Hg (Sep 7, 2:00 AM)
Low45 °F (Sep 18, 5:00 AM)14% (Sep 14, 12:30 PM)29.77 "Hg (Sep 16, 4:30 PM)
Average66 °F49%30.02 "Hg
* Reported Sep 6 1:30 AM — Sep 21 1:30 AM, Astrakhan, Weather by CustomWeather, © 2014

Note: Actual official high and low records may vary slightly from our data, if they occured in-between our weather recording intervals... More about our weather records

Advertising

Astrakhan weather history for previous 24 hours

 ConditionsComfort  
Time TempWeatherWind HumidityBarometerVisibility
1:30 AM
Sep 21
54 °FClear.13 mph72%30.09 "Hg10 mi
1:00 AM54 °FClear.13 mph72%30.09 "Hg10 mi
12:30 AM54 °FClear.13 mph72%30.09 "Hg10 mi
12:00 AM54 °FClear.13 mph72%30.09 "Hg10 mi
11:30 PM
Sep 20
54 °FClear.10 mph72%30.12 "Hg10 mi
11:00 PM54 °FClear.10 mph72%30.12 "Hg10 mi
10:30 PM54 °FClear.8 mph72%30.12 "Hg10 mi
10:00 PM54 °FClear.8 mph72%30.15 "Hg10 mi
9:30 PM54 °FPassing clouds.10 mph72%30.15 "HgN/A
5:30 PM57 °FBroken clouds.13 mph59%30.12 "HgN/A
5:00 PM59 °FBroken clouds.13 mph55%30.12 "HgN/A
4:30 PM59 °FSprinkles. Broken clouds.13 mph51%30.15 "HgN/A
4:00 PM59 °FSprinkles. Broken clouds.15 mph51%30.15 "HgN/A
3:30 PM63 °FSprinkles. Broken clouds.15 mph34%30.15 "HgN/A
3:00 PM63 °FSunny.20 mph27%30.15 "Hg10 mi
2:30 PM64 °FSunny.20 mph24%30.15 "Hg10 mi
2:00 PM64 °FSunny.17 mph21%30.15 "Hg10 mi
1:30 PM66 °FSunny.17 mph22%30.18 "Hg10 mi
1:00 PM64 °FSunny.17 mph26%30.18 "Hg10 mi
12:30 PM64 °FSunny.20 mph28%30.18 "Hg10 mi
12:00 PM66 °FSunny.20 mph26%30.18 "Hg10 mi
11:30 AM66 °FSunny.20 mph28%30.18 "Hg10 mi
11:00 AM64 °FSunny.20 mph34%30.21 "Hg10 mi
10:30 AM63 °FSunny.17 mph37%30.21 "Hg10 mi
10:00 AM63 °FSunny.15 mph42%30.21 "Hg10 mi
9:30 AM61 °FSunny.13 mph48%30.21 "Hg10 mi
9:00 AM61 °FSunny.13 mph52%30.21 "Hg10 mi
8:30 AM59 °FSunny.13 mph55%30.21 "Hg10 mi
8:00 AM57 °FSunny.10 mph59%30.21 "Hg10 mi
7:30 AM57 °FClear.10 mph55%30.21 "Hg10 mi
6:30 AM57 °FPartly cloudy.10 mph55%30.21 "HgN/A
6:00 AM57 °FPartly cloudy.10 mph55%30.24 "HgN/A
5:00 AM57 °FPassing clouds.13 mph55%30.24 "HgN/A
4:30 AM55 °FPassing clouds.13 mph59%30.24 "HgN/A
4:00 AM55 °FPassing clouds.10 mph59%30.24 "HgN/A
3:30 AM57 °FPassing clouds.13 mph51%30.24 "HgN/A
3:00 AM57 °FPassing clouds.13 mph51%30.24 "HgN/A
2:30 AM57 °FPassing clouds.13 mph51%30.24 "HgN/A
2:00 AM55 °FPassing clouds.15 mph55%30.27 "HgN/A
Weather by CustomWeather, © 2014

See weather overviewHow to use our weather pages